Saginaw, MI

5:44 AM EDT on August 27, 2016 (GMT -0400)
Saginaw County-Browne

Weather History for KHYX - March, 2014

Change the Weather History Date:

Monday, March 24, 2014

  Actual Average (KMBS) Record (KMBS)
Temperature  
Mean Temperature 22 °F 37 °F  
Max Temperature 30 °F 46 °F 66 °F (2003)
Min Temperature 15 °F 28 °F 12 °F (2014)
Degree Days  
Heating Degree Days 42    
Month to date heating degree days  
Since 1 July heating degree days  
Cooling Degree Days 0    
Month to date cooling degree days  
Year to date cooling degree days  
Moisture  
Dew Point 11 °F    
Average Humidity 59    
Maximum Humidity 79    
Minimum Humidity 43    
Precipitation  
Precipitation 0.00 in 0.07 in 0.70 in (2016)
Month to date precipitation 1.57  
Year to date precipitation 4.89  
Snow  
Snow 0.00 in - - ()
Month to date snowfall  
Since 1 July snowfall  
Snow Depth -    
Sea Level Pressure  
Sea Level Pressure 30.22 in    
Wind  
Wind Speed 7 mph (WSW)    
Max Wind Speed 18 mph    
Max Gust Speed 25 mph    
Visibility 10 miles    
Events Snow    
T = Trace of Precipitation, MM = Missing Value Source: NWS Daily Summary

Daily Weather History Graph

Daily Weather History Graph

Search for Another Location

Airport or City:

Trip Planner

Search our weather history database for the weather conditions in past years. The results will help you decide how hot, cold, wet, or windy it might be!

Date:

Astronomy

Mar. 24, 2014 Rise Set
Actual Time 7:31 AM EDT 7:52 PM EDT
Civil Twilight 7:02 AM EDT 8:21 PM EDT
Nautical Twilight 6:29 AM EDT 8:54 PM EDT
Astronomical Twilight 5:54 AM EDT 9:29 PM EDT
Moon 3:10 AM EDT (3/24) 1:07 PM EDT (3/24)
Length of Visible Light 13h 18m
Length of Day
12h 21m
Last Quarter, 43% of the Moon is Illuminated
Mar 24
Last Quarter
Mar 30
New
Apr 7
First Quarter
Apr 15
Full
Apr 22
Last Quarter

Hourly Weather History & Observations

Time (EDT) Temp. Windchill Dew Point Humidity Pressure Visibility Wind Dir Wind Speed Gust Speed Precip Events Conditions
12:15 AM 21.2 °F 11.7 °F 8.6 °F 58% 30.34 in 10.0 mi NNW 8.1 mph - N/A   Clear
12:35 AM 19.4 °F 10.4 °F 6.8 °F 58% 30.34 in 10.0 mi North 6.9 mph - N/A   Clear
12:55 AM 19.4 °F 11.5 °F 6.8 °F 58% 30.34 in 10.0 mi NNW 5.8 mph - N/A   Clear
1:15 AM 19.4 °F 12.8 °F 6.8 °F 58% 30.34 in 10.0 mi North 4.6 mph - N/A   Clear
1:35 AM 19.4 °F 11.5 °F 6.8 °F 58% 30.34 in 10.0 mi North 5.8 mph - N/A   Clear
1:55 AM 19.4 °F 12.8 °F 6.8 °F 58% 30.34 in 10.0 mi NNW 4.6 mph - N/A   Clear
2:15 AM 17.6 °F - 8.6 °F 68% 30.34 in 10.0 mi Calm Calm - N/A   Clear
2:35 AM 17.6 °F - 8.6 °F 68% 30.34 in 10.0 mi Calm Calm - N/A   Clear
2:55 AM 17.6 °F 12.3 °F 6.8 °F 63% 30.34 in 10.0 mi NW 3.5 mph - N/A   Clear
3:15 AM 17.6 °F 12.3 °F 6.8 °F 63% 30.34 in 10.0 mi NW 3.5 mph - N/A   Clear
3:35 AM 17.6 °F 12.3 °F 5.0 °F 58% 30.34 in 10.0 mi NW 3.5 mph - N/A   Clear
3:55 AM 17.6 °F 12.3 °F 6.8 °F 63% 30.33 in 10.0 mi WNW 3.5 mph - N/A   Clear
4:15 AM 17.6 °F - 8.6 °F 68% 30.33 in 10.0 mi Calm Calm - N/A   Clear
4:34 AM 17.6 °F - 8.6 °F 68% 30.33 in 10.0 mi Calm Calm - N/A   Clear
4:55 AM 17.6 °F - 8.6 °F 68% 30.33 in 10.0 mi Calm Calm - N/A   Clear
5:15 AM 15.8 °F - 8.6 °F 73% 30.32 in 10.0 mi Calm Calm - N/A   Clear
5:34 AM 17.6 °F - 8.6 °F 68% 30.31 in 10.0 mi Calm Calm - N/A   Clear
5:55 AM 17.6 °F 12.3 °F 8.6 °F 68% 30.31 in 10.0 mi SSE 3.5 mph - N/A   Clear
6:15 AM 17.6 °F - 10.4 °F 73% 30.31 in 10.0 mi Calm Calm - N/A   Clear
6:34 AM 17.6 °F - 8.6 °F 68% 30.31 in 10.0 mi Calm Calm - N/A   Clear
6:55 AM 17.6 °F 10.7 °F 10.4 °F 73% 30.32 in 10.0 mi WSW 4.6 mph - N/A   Clear
7:15 AM 15.8 °F 10.2 °F 8.6 °F 73% 30.32 in 10.0 mi SW 3.5 mph - N/A   Clear
7:34 AM 15.8 °F - 10.4 °F 79% 30.32 in 10.0 mi Calm Calm - N/A   Clear
7:55 AM 17.6 °F 9.3 °F 10.4 °F 73% 30.32 in 10.0 mi SW 5.8 mph - N/A   Mostly Cloudy
8:15 AM 17.6 °F 8.2 °F 12.2 °F 79% 30.31 in 10.0 mi SW 6.9 mph - N/A   Overcast
8:35 AM 17.6 °F 8.2 °F 12.2 °F 79% 30.31 in 10.0 mi SW 6.9 mph - N/A   Scattered Clouds
8:55 AM 19.4 °F 11.5 °F 12.2 °F 74% 30.31 in 10.0 mi SW 5.8 mph - N/A   Clear
9:15 AM 19.4 °F 12.8 °F 10.4 °F 68% 30.30 in 10.0 mi WSW 4.6 mph - N/A   Clear
9:34 AM 21.2 °F 11.7 °F 10.4 °F 63% 30.30 in 10.0 mi SW 8.1 mph - N/A   Clear
9:55 AM 21.2 °F 10.1 °F 10.4 °F 63% 30.29 in 10.0 mi SW 10.4 mph - N/A   Clear
10:15 AM 23.0 °F 13.1 °F 10.4 °F 59% 30.29 in 10.0 mi SW 9.2 mph - N/A   Clear
10:35 AM 23.0 °F 11.7 °F 10.4 °F 59% 30.29 in 10.0 mi SSW 11.5 mph - N/A   Clear
10:55 AM 23.0 °F 11.7 °F 10.4 °F 59% 30.28 in 10.0 mi SSW 11.5 mph - N/A   Mostly Cloudy
11:15 AM 23.0 °F 11.7 °F 10.4 °F 59% 30.27 in 10.0 mi SSW 11.5 mph 16.1 mph N/A   Overcast
11:35 AM 23.0 °F 13.9 °F 12.2 °F 63% 30.26 in 10.0 mi SW 8.1 mph 16.1 mph N/A   Mostly Cloudy
11:55 AM 26.6 °F 16.2 °F 12.2 °F 55% 30.25 in 10.0 mi SSW 11.5 mph 16.1 mph N/A   Mostly Cloudy
12:15 PM 26.6 °F 15.7 °F 12.2 °F 55% 30.24 in 10.0 mi SW 12.7 mph - N/A   Overcast
12:35 PM 26.6 °F 15.7 °F 12.2 °F 55% 30.23 in 10.0 mi SW 12.7 mph 18.4 mph N/A   Overcast
12:55 PM 28.4 °F 18.0 °F 14.0 °F 55% 30.23 in 10.0 mi SW 12.7 mph 19.6 mph N/A   Overcast
1:15 PM 26.6 °F 15.2 °F 14.0 °F 59% 30.22 in 10.0 mi SW 13.8 mph 19.6 mph N/A   Overcast
1:35 PM 26.6 °F 13.4 °F 15.8 °F 64% 30.21 in 4.0 mi WSW 18.4 mph 23.0 mph N/A Snow Light Snow
1:55 PM 26.6 °F 15.2 °F 14.0 °F 59% 30.21 in 7.0 mi SW 13.8 mph - N/A Snow Light Snow
2:15 PM 28.4 °F 18.0 °F 14.0 °F 55% 30.19 in 7.0 mi WSW 12.7 mph - N/A Snow Light Snow
2:35 PM 28.4 °F 18.0 °F 14.0 °F 55% 30.18 in 10.0 mi WSW 12.7 mph 17.3 mph N/A   Overcast
2:55 PM 28.4 °F 17.0 °F 14.0 °F 55% 30.17 in 10.0 mi SW 15.0 mph 25.3 mph N/A   Overcast
3:15 PM 28.4 °F 17.5 °F 14.0 °F 55% 30.16 in 10.0 mi WSW 13.8 mph 21.9 mph N/A   Overcast
3:35 PM 28.4 °F 16.2 °F 12.2 °F 51% 30.14 in 10.0 mi WNW 17.3 mph - N/A   Overcast
3:55 PM 30.2 °F 18.9 °F 14.0 °F 51% 30.14 in 10.0 mi West 16.1 mph 20.7 mph N/A   Overcast
4:15 PM 28.4 °F 16.6 °F 12.2 °F 51% 30.13 in 10.0 mi WSW 16.1 mph 23.0 mph N/A   Overcast
4:35 PM 28.4 °F 18.0 °F 12.2 °F 51% 30.12 in 10.0 mi WSW 12.7 mph - N/A   Mostly Cloudy
4:55 PM 30.2 °F 21.3 °F 12.2 °F 47% 30.11 in 10.0 mi WSW 10.4 mph 13.8 mph N/A   Mostly Cloudy
5:15 PM 30.2 °F 20.8 °F 12.2 °F 47% 30.10 in 10.0 mi WSW 11.5 mph 25.3 mph N/A   Mostly Cloudy
5:35 PM 30.2 °F 18.5 °F 14.0 °F 51% 30.10 in 10.0 mi SW 17.3 mph 23.0 mph N/A   Mostly Cloudy
5:55 PM 30.2 °F 18.5 °F 10.4 °F 44% 30.09 in 10.0 mi WSW 17.3 mph - N/A   Overcast
6:14 PM 30.2 °F 19.3 °F 10.4 °F 44% 30.09 in 10.0 mi WSW 15.0 mph - N/A   Mostly Cloudy
6:35 PM 30.2 °F 18.5 °F 10.4 °F 44% 30.09 in 10.0 mi WSW 17.3 mph 23.0 mph N/A   Overcast
6:55 PM 30.2 °F 20.2 °F 10.4 °F 44% 30.09 in 10.0 mi West 12.7 mph 19.6 mph N/A   Mostly Cloudy
7:14 PM 30.2 °F 18.5 °F 10.4 °F 44% 30.09 in 10.0 mi West 17.3 mph - N/A   Mostly Cloudy
7:35 PM 28.4 °F 17.0 °F 8.6 °F 43% 30.09 in 10.0 mi West 15.0 mph - N/A   Mostly Cloudy
7:55 PM 28.4 °F 16.6 °F 8.6 °F 43% 30.09 in 10.0 mi West 16.1 mph 20.7 mph N/A   Scattered Clouds
8:14 PM 28.4 °F 17.0 °F 8.6 °F 43% 30.09 in 10.0 mi West 15.0 mph 20.7 mph N/A   Scattered Clouds
8:35 PM 28.4 °F 18.0 °F 10.4 °F 47% 30.09 in 10.0 mi West 12.7 mph - N/A   Scattered Clouds
8:55 PM 28.4 °F 18.5 °F 10.4 °F 47% 30.09 in 10.0 mi West 11.5 mph 16.1 mph N/A   Clear
9:15 PM 26.6 °F 18.2 °F 10.4 °F 51% 30.09 in 10.0 mi West 8.1 mph - N/A   Clear
9:35 PM 26.6 °F 21.2 °F 12.2 °F 55% 30.09 in 10.0 mi West 4.6 mph - N/A   Clear
9:55 PM 26.6 °F 20.0 °F 12.2 °F 55% 30.08 in 10.0 mi WSW 5.8 mph - N/A   Clear
10:15 PM 26.6 °F 20.0 °F 12.2 °F 55% 30.08 in 10.0 mi WSW 5.8 mph - N/A   Clear
10:35 PM 26.6 °F 19.1 °F 14.0 °F 59% 30.07 in 10.0 mi WSW 6.9 mph - N/A   Clear
10:55 PM 24.8 °F 17.9 °F 15.8 °F 69% 30.07 in 10.0 mi WSW 5.8 mph - N/A   Clear
11:15 PM 24.8 °F 19.1 °F 15.8 °F 69% 30.06 in 10.0 mi WSW 4.6 mph - N/A   Clear
11:35 PM 23.0 °F 17.0 °F 15.8 °F 74% 30.06 in 10.0 mi SW 4.6 mph - N/A   Clear
11:55 PM 24.8 °F 17.9 °F 15.8 °F 69% 30.05 in 10.0 mi SSW 5.8 mph - N/A   Scattered Clouds